STARLINK-5027, 55370

Orbit data source: Space-Track

STARLINK-5027, 55370 is a payload satellite owned by SpaceX/Seattle (US) in LEO that was launched on Thu, 26 Jan 2023 UTC via an FALCON 9 launch vehicle from the Air Force Eastern Test Range (AFETR). Payload-class satellites include a variety of spacecraft equipped with specific instruments for various scientific and technological missions. These include communications satellites like Starlink; space stations such as the ISS; scientific satellites like the Hubble; Earth observation satellites from companies like Planet Labs, Umbra, and HawkEye 360; GPS; miniature CubeSats for education and research; and military/defense satellites.

Loading next visibility...
Identifier
55370, 2023-013AR
Orbit
LEO
Country
Flag of USUS
Related business
Manufacturer
SpaceX/Seattle
Mission
Operational Commercial Communications
Bus & Motor
STARLINK, Unknown motor
Mass
305 kg wet, ~290 kg dry
Launch date (UTC)
2023-01-26 (3 years ago)
Launch vehicle
FALCON 9
Launch site
Air Force Eastern Test Range (AFETR)
Object type
Payload
Rocket body
Debris
Shape & HBR
Box + 1 Pan, 10.1 m
Radar Cross Section
13.562 m², Large (>1 m²)

Expand to show TLE details & history
Last TLE update: 3 days ago

TLE from 3 days ago
0 STARLINK-5027
1 55370U 23013AR  26170.16204215  .00000403  00000-0  24190-4 0  9993
2 55370  43.0059 108.3414 0002156 264.0907  95.9699 15.27582137186986
Epoch: 2026-06-19T03:53Z
TLE epoch observation values (Epoch: 2026-06-19T03:53:20.441Z)
Latitude
-0.00003°
Longitude
142.61122°
Altitude
482.973 km
Speed
7.626 km/s
True Right ascension
07h 13m 21s
True Declination
0° 00' 00"
Sunlit
Object was in daylight at epoch
Visualization orbit readout
Latitude
Unknown
Longitude
Unknown
Altitude
Unknown
Speed
Unknown
Apparent Right ascension
Unknown
Apparent Declination
Unknown
Sunlit
N/A
Visualization observer readout
Local Sidereal Time
21:46:55
Azimuth
Unknown
Elevation
Unknown
Doppler factor
Unknown
Orbital elements
Apogee altitude
486.467 km
Perigee altitude
483.507 km
Semi-major axis
6,863.124 km
Eccentricity
0.00022
Inclination
43.0059°
RAAN
108.3414°
Arg. of periapsis
264.0907°
True anomaly
95.99447°
Mean anomaly
95.9699°
Eccentric anomaly
95.98219°
Mean motion
3.81734 °/min
Orbital period
94.31 mins
BSTAR
0.00002419
Loading maneuver chart data...
Computing Atmospheric mass density...
Loading historical data...
Loading historical data...
Loading historical data...
Loading historical data...
Loading historical data...
Loading historical data...
Loading historical data...

Documentation

Showing up to 5 results
|